Regional Weather Roundup
Issued by NWS Upton, NY

Current Version | Previous Version | Graphics & Text | Print | Product List | Glossary Off
Versions: 1 2 3 4 5 6 7 8 9 10 11 12 13 14 15 16 17 18 19 20 21 22 23 24 25 26 27

000
ASUS41 KOKX 221509
RWROKX

REGIONAL WEATHER ROUNDUP
NATIONAL WEATHER SERVICE NEW YORK NY
1100 AM EDT THU JUN 22 2017

NOTE: "FAIR" INDICATES FEW OR NO CLOUDS BELOW 12,000 FEET WITH NO
SIGNIFICANT WEATHER AND/OR OBSTRUCTIONS TO VISIBILITY.

NYZ071-072-176-178-NJZ106-104-221600-
NEW YORK CITY METRO AREA

CITY           SKY/WX    TMP DP  RH WIND       PRES   REMARKS
Central Park   SUNNY     78  56  46 CALM      30.02F
Bronx Bot Gard   N/A     77  57  50 E7        30.00F
LaGuardia APRT PTSUNNY   78  55  44 NE8       29.99F
Kennedy INTL   MOSUNNY   77  62  59 SE10      30.01F
Breezy Point     N/A     70 N/A N/A S7          N/A
Newark/Liberty PTSUNNY   79  59  50 S8        29.99F
Teterboro      SUNNY     80  56  43 W7        29.98F
$$

NYZ177-179-078>081-221600-
LONG ISLAND NEW YORK

CITY           SKY/WX    TMP DP  RH WIND       PRES   REMARKS
Jones Beach      N/A     70 N/A N/A SE7         N/A
Matinecock PT  NOT AVBL
Farmingdale    NOT AVBL
MacArthur/ISP  MOSUNNY   79  56  45 CALM      29.98F
Shirley        SUNNY     78  56  46 VRB3      29.99F
Mt Sinai Harb    N/A     73 N/A N/A CALM        N/A
Westhampton    SUNNY     78  53  41 VRB3      30.00F
East Hampton   FAIR      76  52  43 W3        29.98F
Montauk          N/A     75  53  46 W6        29.99F
$$

NYZ052-065-067-221600-
HUDSON VALLEY

CITY           SKY/WX    TMP DP  RH WIND       PRES   REMARKS
White Plains   NOT AVBL
Larchmont Harb   N/A     68 N/A N/A E7          N/A
Croton O-T Hud   N/A     72 N/A N/A CALM        N/A
Newburgh       MOSUNNY   73  57  56 CALM      30.02F
Montgomery     SUNNY     75  56  51 S7        30.00F
Poughkeepsie   CLOUDY    75  54  47 CALM      29.99F
Albany         MOSUNNY   74  55  51 VRB5      30.00S
$$

NJZ001-105-106-008-010-013-015-019>022-104-221600-
NEW JERSEY

CITY           SKY/WX    TMP DP  RH WIND       PRES   REMARKS
Newark/Liberty PTSUNNY   79  59  50 S8        29.99F
Teterboro      SUNNY     80  56  43 W7        29.98F
Caldwell       SUNNY     80  57  45 VRB3      30.00F
Somerville     SUNNY     79  61  53 CALM      29.99F
Linden         FAIR      78  54  42 S7        30.00F
Perth Amboy      N/A     72 N/A N/A E9          N/A
Sussex         MOSUNNY   75  57  53 CALM      30.01F
Andover          N/A     77  57  50 VRB5      30.01F
Trenton        MOSUNNY   80  60  50 CALM      30.00F
Millville      SUNNY     80  67  64 VRB3      30.01R
Atlantic City  SUNNY     82  60  47 E8        30.01S
Wrightstown    SUNNY     79  67  67 S5        29.98F
Toms River     MOSUNNY   83  64  52 VRB5      30.01F
Belmar         SUNNY     75  58  55 SE8       30.02F
$$

PAZ047>061-062-071-221600-
EASTERN PENNSYLVANIA

CITY           SKY/WX    TMP DP  RH WIND       PRES   REMARKS
Philadelphia   PTSUNNY   84  61  45 VRB3      30.01S
Allentown      SUNNY     78  59  51 W3        30.01F
Scranton       SUNNY     77  57  50 VRB5      30.01F
$$

CTZ002-004>006-009-010-012-RIZ004-006-007-MAZ004-011-015-221600-
SOUTHERN NEW ENGLAND
 IN CT

CITY           SKY/WX    TMP DP  RH WIND       PRES   REMARKS
Bradley INTL   MOSUNNY   77  53  43 NW8       29.98F
Hartford       SUNNY     76  54  46 CALM      29.98F
Danbury        SUNNY     75  57  53 SW5       30.01F
Wtrbury/Oxford MOSUNNY   73  54  49 W3        30.02F
Bridgeport     MOSUNNY   74  58  57 S6        29.99F
Meriden        MOSUNNY   76  52  43 VRB5      29.98F
New Haven      MOSUNNY  N/A N/A N/A MISG      30.01S
Chester        FAIR      77  50  38 NW9       29.99F
Groton         PTSUNNY   73  59  61 SW10      29.97F
Wilimantic     SUNNY     78  55  44 W7        29.98F

 IN RI

CITY           SKY/WX    TMP DP  RH WIND       PRES   REMARKS
Providence     MOSUNNY   77  53  43 VRB3      29.97F
Block Island   SUNNY     74  55  51 W6        29.99F
Westerly       MOSUNNY   79  55  43 SW8       29.98F
 IN MA

CITY           SKY/WX    TMP DP  RH WIND       PRES   REMARKS
Boston         MOSUNNY   74  56  53 SE8       29.95F
Worcester      SUNNY     72  49  44 W13       29.98F
Westfield      SUNNY     77  53  43 VRB5      29.98F
Provincetown   SUNNY     71  55  56 VRB6      29.97F
Nantucket      SUNNY     73  59  61 S7        29.98F
$$

ANZ330-335-338-340-345-350-353-355-221600-
COASTAL MARINE OBSERVATIONS


STATION/POSITION TIME  SKY/WX   TEMP    WIND        PRES    VSBY  WAVE
                                AIR SEA DIR/SP/G                  HT/PER
                 (UTC)          (F)     (DEG/KT/KT) (MB)    (MI)  (FT/S)
NY HARB ENTRANCE 1350            67 66   70/  4/  4 1016.2          2/ 6
20 S FIRE ISLAND 1450            69 69  110/  6/  8 1015.7          3/ 6
GREAT SOUTH BAY  1430            72 76  160/  2/  4   N/A
23 SSW MONTAUK P 1350            65 64              1016.9          3/ 6
15 E BARNEGAT LI 1430               67                N/A           2/ 6
HUDSON CANYON    1350            68 66   CALM  /  2 1016.5          3/ 5
KINGS POINT      1430            70 65     CALM     1015.6
EXECUTION ROCKS  1445            70     340/  2/  2   N/A
CENTRAL LI SOUND 1445            69     230/  8/  8   N/A           0
EASTERN LI SOUND NOT AVBL
ROBBINS REEF     1424                   170/ 13/ 14 1016.5
$$


>>>>>>>>>>>>>>>>>>>>>>>>>>>> KEY <<<<<<<<<<<<<<<<<<<<<<<<<<<
>                                                          <
>     SKY/WX - Sky Condition/Present Weather               <
>     TMP    - Temperature in Fahrenheit                   <
>     DP     - Dew Point in Fahrenheit                     <
>     RH     - Relative Humidity in Percent                <
>     WIND   - Direction (from) and Speed in MPH           <
>     PRES   - Mean Sea Level Pressure (inches of Hg)      <
>     WCI    - Wind Chill Index                            <
>     VSB    - VISIBILITY IN MILES                         <
>     HX     - HEAT INDEX                                  <
>     TC     - TEMPERATURE IN CELSIUS                      <
>     VRB    - VARIABLE WIND DIRECTION                     <
>                                                          <
>>>>>>>>>>>>>>>>>>>>>>>>>>>> KEY <<<<<<<<<<<<<<<<<<<<<<<<<<<




USA.gov is the U.S. government's official web portal to all federal, state and local government web resources and services.